When you browse on this site, cookies collect data to enhance your experience and personalize the content and advertising you see.
Visit our Privacy Policy to learn more. By continuing to use the site, you agree to this use of cookies and data.

Hourly Weather Saint-Herblain

Today, 4 July, Saturday

Time Temperature Precipitation Wind Pressure Humidity
00:00 +13°C° 0 mm 3 mps 763 mmHg 89%
01:00 +13°C° 0 mm 4 mps 763 mmHg 89%
02:00 +14°C° 0 mm 4 mps 763 mmHg 89%
03:00 +14°C° 0 mm 4 mps 763 mmHg 89%
04:00 +14°C° 0 mm 4 mps 762 mmHg 87%
05:00 +15°C° 0 mm 5 mps 762 mmHg 85%
06:00 +16°C° 0 mm 5 mps 762 mmHg 83%
07:00 +16°C° 0 mm 6 mps 762 mmHg 83%
08:00 +17°C° 0 mm 6 mps 762 mmHg 82%
09:00 +17°C° 0 mm 6 mps 762 mmHg 82%
10:00 +17°C° 0.1 mm 7 mps 762 mmHg 84%
11:00 +18°C° 0.1 mm 7 mps 762 mmHg 85%
12:00 +18°C° 0.1 mm 7 mps 762 mmHg 86%
13:00 +18°C° 0.1 mm 7 mps 762 mmHg 88%
14:00 +18°C° 0.1 mm 7 mps 762 mmHg 89%
15:00 +18°C° 0.1 mm 7 mps 762 mmHg 91%
16:00 +18°C° 0 mm 7 mps 762 mmHg 91%
17:00 +19°C° 0 mm 6 mps 762 mmHg 92%
18:00 +19°C° 0 mm 6 mps 761 mmHg 92%
19:00 +19°C° 0 mm 6 mps 762 mmHg 93%
20:00 +19°C° 0 mm 6 mps 762 mmHg 93%
21:00 +19°C° 0 mm 5 mps 762 mmHg 93%
22:00 +19°C° 0 mm 5 mps 762 mmHg 94%
23:00 +19°C° 0 mm 5 mps 762 mmHg 94%

Tomorrow, 5 July, Sunday

Time Temperature Precipitation Wind Pressure Humidity
00:00 +18°C° 0 mm 4 mps 762 mmHg 94%
01:00 +18°C° 0 mm 4 mps 762 mmHg 94%
02:00 +18°C° 0 mm 4 mps 762 mmHg 94%
03:00 +18°C° 0 mm 4 mps 761 mmHg 94%
04:00 +19°C° 0 mm 4 mps 761 mmHg 93%
05:00 +19°C° 0 mm 4 mps 761 mmHg 92%
06:00 +19°C° 0 mm 4 mps 762 mmHg 91%
07:00 +19°C° 0 mm 5 mps 762 mmHg 89%
08:00 +20°C° 0 mm 5 mps 762 mmHg 86%
09:00 +20°C° 0 mm 6 mps 762 mmHg 84%
10:00 +20°C° 0 mm 6 mps 762 mmHg 82%
11:00 +21°C° 0 mm 6 mps 762 mmHg 81%
12:00 +21°C° 0 mm 6 mps 762 mmHg 79%
13:00 +21°C° 0 mm 6 mps 762 mmHg 79%
14:00 +21°C° 0 mm 6 mps 762 mmHg 79%
15:00 +21°C° 0 mm 6 mps 761 mmHg 80%
16:00 +20°C° 0 mm 6 mps 761 mmHg 82%
17:00 +20°C° 0 mm 5 mps 761 mmHg 84%
18:00 +20°C° 0 mm 5 mps 761 mmHg 86%
19:00 +19°C° 0 mm 5 mps 762 mmHg 87%
20:00 +18°C° 0 mm 4 mps 762 mmHg 89%
21:00 +15°C° 0 mm 4 mps 762 mmHg 91%
22:00 +14°C° 0 mm 4 mps 762 mmHg 91%
23:00 +13°C° 0 mm 3 mps 762 mmHg 91%

Day after tomorrow, 6 July, Monday

Time Temperature Precipitation Wind Pressure Humidity
00:00 +12°C° 0 mm 3 mps 762 mmHg 91%
01:00 +11°C° 0 mm 3 mps 763 mmHg 91%
02:00 +10°C° 0 mm 3 mps 763 mmHg 91%
03:00 +9°C° 0 mm 3 mps 763 mmHg 92%
04:00 +10°C° 0 mm 3 mps 763 mmHg 88%
05:00 +11°C° 0 mm 3 mps 763 mmHg 84%
06:00 +12°C° 0 mm 3 mps 764 mmHg 81%
07:00 +13°C° 0 mm 3 mps 764 mmHg 75%
08:00 +14°C° 0 mm 4 mps 764 mmHg 68%
09:00 +15°C° 0 mm 4 mps 764 mmHg 62%
10:00 +17°C° 0 mm 4 mps 764 mmHg 60%
11:00 +18°C° 0 mm 4 mps 764 mmHg 57%
12:00 +19°C° 0 mm 4 mps 764 mmHg 55%
13:00 +19°C° 0 mm 4 mps 764 mmHg 56%
14:00 +20°C° 0 mm 4 mps 764 mmHg 57%
15:00 +20°C° 0 mm 4 mps 764 mmHg 57%
16:00 +20°C° 0 mm 4 mps 764 mmHg 59%
17:00 +19°C° 0 mm 4 mps 764 mmHg 61%
18:00 +19°C° 0 mm 4 mps 764 mmHg 63%
19:00 +17°C° 0 mm 4 mps 765 mmHg 70%
20:00 +14°C° 0 mm 4 mps 765 mmHg 76%
21:00 +13°C° 0 mm 4 mps 765 mmHg 83%
22:00 +12°C° 0 mm 3 mps 765 mmHg 86%
23:00 +11°C° 0 mm 3 mps 765 mmHg 90%

7 July, Tuesday

Time Temperature Precipitation Wind Pressure Humidity
00:00 +10°C° 0 mm 3 mps 765 mmHg 93%
01:00 +10°C° 0 mm 2 mps 765 mmHg 93%
02:00 +9°C° 0 mm 2 mps 765 mmHg 94%
03:00 +9°C° 0 mm 2 mps 765 mmHg 94%
04:00 +10°C° 0 mm 2 mps 765 mmHg 92%
05:00 +10°C° 0 mm 2 mps 765 mmHg 90%
06:00 +12°C° 0 mm 2 mps 765 mmHg 87%
07:00 +14°C° 0 mm 2 mps 765 mmHg 79%
08:00 +16°C° 0 mm 2 mps 764 mmHg 71%
09:00 +18°C° 0 mm 3 mps 764 mmHg 62%
10:00 +19°C° 0 mm 3 mps 764 mmHg 58%
11:00 +20°C° 0 mm 3 mps 764 mmHg 54%
12:00 +22°C° 0 mm 3 mps 764 mmHg 49%
13:00 +22°C° 0 mm 3 mps 764 mmHg 49%
14:00 +24°C° 0 mm 3 mps 763 mmHg 48%
15:00 +24°C° 0 mm 3 mps 763 mmHg 48%
16:00 +24°C° 0 mm 3 mps 763 mmHg 53%
17:00 +22°C° 0 mm 3 mps 763 mmHg 58%
18:00 +21°C° 0 mm 4 mps 762 mmHg 63%
19:00 +20°C° 0 mm 4 mps 763 mmHg 70%
20:00 +18°C° 0 mm 4 mps 763 mmHg 76%
21:00 +15°C° 0 mm 4 mps 763 mmHg 83%
22:00 +14°C° 0 mm 3 mps 763 mmHg 86%
23:00 +13°C° 0 mm 3 mps 763 mmHg 89%

8 July, Wednesday

Time Temperature Precipitation Wind Pressure Humidity
00:00 +13°C° 0 mm 3 mps 763 mmHg 92%
01:00 +12°C° 0 mm 3 mps 762 mmHg 90%
02:00 +12°C° 0 mm 3 mps 762 mmHg 87%
03:00 +12°C° 0 mm 3 mps 762 mmHg 85%
04:00 +12°C° 0 mm 3 mps 762 mmHg 82%
05:00 +13°C° 0 mm 3 mps 762 mmHg 80%
06:00 +13°C° 0 mm 3 mps 762 mmHg 78%
07:00 +16°C° 0 mm 3 mps 762 mmHg 73%
08:00 +18°C° 0 mm 3 mps 762 mmHg 67%
09:00 +20°C° 0 mm 3 mps 762 mmHg 62%
10:00 +21°C° 0 mm 3 mps 762 mmHg 58%
11:00 +22°C° 0 mm 3 mps 762 mmHg 53%
12:00 +25°C° 0 mm 3 mps 762 mmHg 49%
13:00 +25°C° 0 mm 3 mps 761 mmHg 48%
14:00 +26°C° 0 mm 3 mps 761 mmHg 47%
15:00 +26°C° 0 mm 3 mps 761 mmHg 46%
16:00 +26°C° 0 mm 3 mps 761 mmHg 50%
17:00 +26°C° 0 mm 3 mps 761 mmHg 54%
18:00 +25°C° 0 mm 3 mps 761 mmHg 58%
19:00 +22°C° 0 mm 3 mps 761 mmHg 63%
20:00 +20°C° 0 mm 4 mps 761 mmHg 67%
21:00 +17°C° 0 mm 4 mps 762 mmHg 71%
22:00 +15°C° 0 mm 4 mps 762 mmHg 72%
23:00 +14°C° 0 mm 3 mps 762 mmHg 72%

9 July, Thursday

Time Temperature Precipitation Wind Pressure Humidity
00:00 +13°C° 0 mm 3 mps 762 mmHg 73%
01:00 +13°C° 0 mm 3 mps 762 mmHg 75%
02:00 +12°C° 0 mm 3 mps 762 mmHg 77%
03:00 +12°C° 0 mm 3 mps 761 mmHg 79%
04:00 +14°C° 0 mm 2 mps 761 mmHg 78%
05:00 +15°C° 0 mm 2 mps 762 mmHg 77%
06:00 +15°C° 0 mm 1 mps 762 mmHg 76%
07:00 +18°C° 0 mm 1 mps 762 mmHg 71%
08:00 +20°C° 0 mm 1 mps 762 mmHg 65%
09:00 +22°C° 0 mm 1 mps 762 mmHg 60%
10:00 +23°C° 0 mm 2 mps 762 mmHg 57%
11:00 +25°C° 0 mm 2 mps 762 mmHg 54%
12:00 +26°C° 0 mm 3 mps 762 mmHg 52%
13:00 +26°C° 0 mm 3 mps 762 mmHg 53%
14:00 +26°C° 0 mm 4 mps 762 mmHg 55%
15:00 +26°C° 0 mm 4 mps 761 mmHg 57%
16:00 +25°C° 0 mm 4 mps 761 mmHg 62%
17:00 +23°C° 0 mm 5 mps 761 mmHg 67%
18:00 +23°C° 0 mm 5 mps 761 mmHg 71%
19:00 +21°C° 0 mm 4 mps 761 mmHg 78%
20:00 +19°C° 0 mm 4 mps 761 mmHg 85%
21:00 +17°C° 0 mm 3 mps 762 mmHg 92%
22:00 +16°C° 0 mm 3 mps 762 mmHg 93%
23:00 +16°C° 0 mm 3 mps 762 mmHg 94%
Show more